Location: São Paulo
(23.5507°S, 46.6334°W)
Time: 12:58:00
(UTC-03:00)

A-11 Canister half - Pass Details

Date: 12 February 2026
Orbit: 1525 x 1683 km, 47.3° (Epoch: 8 March)

Event Time Altitude Azimuth Distance (km) Brightness Sun altitude
Exits shadow 03:14:33 29° 18° (NNE) 2,672 10.0 -33.5°
Maximum altitude 03:17:57 36° 53° (NE) 2,408 10.0 -32.9°
Drops below altitude 10° 03:26:51 10° 115° (ESE) 3,949 12.0 -31.2°
Sets 03:30:23 0° 123° (ESE) 4,947 12.8 -30.6°
